Regional Weather Roundup
Issued by NWS

Home | Current Version | Previous Version | Text Only | Print | Product List | Glossary On
Versions: 1 2 3 4 5 6 7 8 9 10 11 12 13 14 15 16 17 18 19 20 21 22 23 24 25 26 27
000
ASUS45 KREV 201810
RWRNV
NEVADA REGIONAL WEATHER ROUNDUP
NATIONAL WEATHER SERVICE RENO NV
1100 AM PDT SUN AUG 20 2017

NOTE: "FAIR" INDICATES FEW OR NO CLOUDS BELOW 12,000 FEET WITH NO
SIGNIFICANT WEATHER AND/OR OBSTRUCTIONS TO VISIBILITY.

NVZ001-003-004-201900-
WESTERN NEVADA

CITY           SKY/WX    TMP DP  RH WIND       PRES   REMARKS
RENO           MOSUNNY   81  40  23 CALM      30.08F
6HR MIN TEMP:  65; 6HR MAX TEMP:  81;

MINDEN         FAIR      75  45  33 N8        30.10F
FALLON         MOSUNNY   84  31  14 VRB6      30.04F
6HR MIN TEMP:  66; 6HR MAX TEMP:  84;

LOVELOCK       SUNNY     84  32  15 NE17      30.03F
6HR MIN TEMP:  57; 6HR MAX TEMP:  85;

HAWTHORNE      SUNNY     82  37  20 NW6       30.05F
$$

NVZ002-CAZ072-073-201900-
NORTHERN AND CENTRAL SIERRA

CITY           SKY/WX    TMP DP  RH WIND       PRES   REMARKS
S. LAKE TAHOE  SUNNY     74  47  38 VRB3      30.19R
6HR MIN TEMP:  48; 6HR MAX TEMP:  74;

TRUCKEE        SUNNY     70  48  46 CALM      30.19
SQUAW VLY 8000   N/A     66  45  45 SE2         N/A
SUSANVILLE     SUNNY     79  32  18 CALM      30.09F
MAMMOTH LAKES  FAIR      76  34  21 E9        30.24F
6HR MIN TEMP:  42; 6HR MAX TEMP:  76;

BRIDGEPORT     FAIR      76  38  25 CALM      30.19F
$$

NVZ030-031-036-201900-
NORTHERN NEVADA

CITY           SKY/WX    TMP DP  RH WIND       PRES   REMARKS
ELKO           SUNNY     83  27  13 NE7       30.11F
6HR MIN TEMP:  54; 6HR MAX TEMP:  83;

WINNEMUCCA     SUNNY     83  32  16 NE14G22   30.08F
6HR MIN TEMP:  57; 6HR MAX TEMP:  83;

WENDOVER       SUNNY     86  33  15 SE8       30.06F
$$

NVZ035-037-201900-
CENTRAL NEVADA

CITY           SKY/WX    TMP DP  RH WIND       PRES   REMARKS
ELY            SUNNY     82  31  15 CALM      30.18F
6HR MIN TEMP:  47; 6HR MAX TEMP:  82;

EUREKA           N/A     82  37  20 E3        30.15F
6HR MIN TEMP:  47; 6HR MAX TEMP:  82;

$$

NVZ013-014-201900-
SOUTH CENTRAL NEVADA

CITY           SKY/WX    TMP DP  RH WIND       PRES   REMARKS
TONOPAH        SUNNY     82  35  18 S7        30.14S
6HR MIN TEMP:  57; 6HR MAX TEMP:  83;

$$

NVZ017-020-022-201900-
SOUTHERN NEVADA

CITY           SKY/WX    TMP DP  RH WIND       PRES   REMARKS
LAS VEGAS      MOSUNNY   96  44  16 E8        29.93S
6HR MIN TEMP:  81; 6HR MAX TEMP:  96;

N. LAS VEGAS   SUNNY     94  44  17 E9        29.93S
6HR MIN TEMP:  78; 6HR MAX TEMP:  94;

NELLIS AFB     SUNNY     96  44  16 SE8       29.91S
6HR MIN TEMP:  78; 6HR MAX TEMP:  96;

HENDERSON      SUNNY     95  46  18 VRB7      29.96F
6HR MIN TEMP:  77; 6HR MAX TEMP:  95;

MERCURY        SUNNY     91  42  18 VRB3      29.98F
6HR MIN TEMP:  70; 6HR MAX TEMP:  92;

$$




USA.gov is the U.S. government's official web portal to all federal, state and local government web resources and services.